NORTHEAST SUFFOLK  -  Rip Current Statement Rip Current Statement        NORTHERN NASSAU  -  Rip Current Statement Rip Current Statement        NORTHERN QUEENS  -  Rip Current Statement Rip Current Statement        NORTHWEST SUFFOLK  -  Rip Current Statement Rip Current Statement        SOUTHEAST SUFFOLK  -  Rip Current Statement Rip Current Statement        SOUTHERN NASSAU  -  Rip Current Statement Rip Current Statement        SOUTHERN QUEENS  -  Rip Current Statement Rip Current Statement        SOUTHWEST SUFFOLK  -  Rip Current Statement Rip Current Statement      

Active alerts

Northern Queens
  Details for Northern Queens Rip Current Statement
Southern Queens
  Details for Southern Queens Rip Current Statement
Northern Nassau
  Details for Northern Nassau Rip Current Statement
Southern Nassau
  Details for Southern Nassau Rip Current Statement
Northwest Suffolk
  Details for Northwest Suffolk Rip Current Statement
Southwest Suffolk
  Details for Southwest Suffolk Rip Current Statement
Northeast Suffolk
  Details for Northeast Suffolk Rip Current Statement
Southeast Suffolk
  Details for Southeast Suffolk Rip Current Statement


WXM80 ListenWXM80 Stop

You find our weather info also at:

UK Metoffice

WeatherCloud

Weather Underground

Northeastern Weather Network

AWEKAS

Citizen Weather Observer Program (CWOP)

HAMweather, WeatherForYou, PWS Weather


Weather Underground History page Text

Daily Summary for February 17, 2017 Units:  Metric    English   Both
« Previous Day
Next Day »
Daily Weekly Monthly Yearly Custom
  High: Low: Average:
Temperature: 4.8 °C -2.4 °C 1.2 °C
Dew Point: -3.8 °C -7.6 °C -5.8 °C
Humidity: 72 % 46 % 60 %
Wind Speed: 16.3 km/h 0 km/h 7.6 km/h
Wind Gust: 31.5 km/h - -
Wind:- - West
Pressure: 1011.7 hPa 1007 hPa -
Precipitation: 0 mm    
Historical Graphs
 
 
Tabular Data for February 17, 2017
Time Temperature Dew Point Pressure Wind Wind Speed Wind Gust Humidity Rainfall Rate (Hourly)
00:03 -2.1 °C -7.2 °C 1007.3 hPa WNW 8 km/h 29 km/h 68 % 0 mm
00:08 -2.1 °C -7.2 °C 1007.3 hPa WNW 8 km/h 19.3 km/h 68 % 0 mm
00:13 -2.1 °C -7.4 °C 1007.3 hPa WNW 8 km/h 22.5 km/h 67 % 0 mm
00:18 -2.1 °C -7.2 °C 1007.3 hPa WNW 11.3 km/h 20.9 km/h 68 % 0 mm
00:23 -2.1 °C -7.6 °C 1007.3 hPa WNW 9.7 km/h 22.5 km/h 66 % 0 mm
00:28 -2.1 °C -7.6 °C 1007.3 hPa WNW 4.8 km/h 16.1 km/h 66 % 0 mm
00:33 -2.1 °C -7.4 °C 1007.3 hPa WNW 11.3 km/h 19.3 km/h 67 % 0 mm
00:38 -2.1 °C -7.2 °C 1007.3 hPa WNW 9.7 km/h 20.9 km/h 68 % 0 mm
00:43 -2.1 °C -7.2 °C 1007 hPa WNW 11.3 km/h 19.3 km/h 68 % 0 mm
00:48 -2.1 °C -7.2 °C 1007.3 hPa NW 10.1 km/h 17.7 km/h 68 % 0 mm
00:53 -2 °C -7.3 °C 1007.3 hPa NNW 7.6 km/h 14.8 km/h 67 % 0 mm
00:58 -2 °C -7.1 °C 1007.3 hPa West 9.3 km/h 14.8 km/h 68 % 0 mm
01:03 -2 °C -7.3 °C 1007.3 hPa WNW 5 km/h 18.5 km/h 67 % 0 mm
01:08 -2 °C -7.3 °C 1007.3 hPa NW 10.9 km/h 22.2 km/h 67 % 0 mm
01:13 -2 °C -7.3 °C 1007.3 hPa West 12.4 km/h 20.4 km/h 67 % 0 mm
01:19 -2 °C -7.1 °C 1007.3 hPa WSW 11.1 km/h 18.5 km/h 68 % 0 mm
01:24 -2 °C -7.1 °C 1007.3 hPa NW 14.5 km/h 22.5 km/h 68 % 0 mm
01:29 -2 °C -7.1 °C 1007.3 hPa West 15.8 km/h 22.5 km/h 68 % 0 mm
01:34 -2 °C -7.1 °C 1007.3 hPa WNW 8.7 km/h 18.5 km/h 68 % 0 mm
01:39 -2 °C -7.1 °C 1007.3 hPa West 16.3 km/h 25.9 km/h 68 % 0 mm
01:44 -2 °C -7.1 °C 1007.3 hPa WNW 8.7 km/h 18.5 km/h 68 % 0 mm
01:49 -2 °C -6.9 °C 1007.3 hPa NW 10.1 km/h 13 km/h 69 % 0 mm
01:54 -2.1 °C -7 °C 1007.3 hPa NW 7.4 km/h 16.7 km/h 69 % 0 mm
01:59 -2.1 °C -7 °C 1007.3 hPa WNW 11.6 km/h 17.7 km/h 69 % 0 mm
02:04 -2.1 °C -7 °C 1007.7 hPa WNW 7.9 km/h 11.3 km/h 69 % 0 mm
02:09 -2.1 °C -7 °C 1007.3 hPa NNW 6.1 km/h 16.7 km/h 69 % 0 mm
02:14 -2.1 °C -7.1 °C 1007.3 hPa WNW 8 km/h 13 km/h 69 % 0 mm
02:19 -2.1 °C -7.1 °C 1007.3 hPa West 6.9 km/h 22.2 km/h 69 % 0 mm
02:24 -2.2 °C -7.1 °C 1007.7 hPa West 8.5 km/h 20.4 km/h 69 % 0 mm
02:29 -2.2 °C -6.9 °C 1007.7 hPa WSW 6.9 km/h 16.7 km/h 70 % 0 mm
02:35 -2.2 °C -7.2 °C 1007.7 hPa WSW 6.4 km/h 16.7 km/h 69 % 0 mm
02:40 -2.2 °C -7.2 °C 1007.7 hPa West 10.6 km/h 16.7 km/h 69 % 0 mm
02:45 -2.2 °C -7.2 °C 1007.7 hPa WNW 10.3 km/h 20.4 km/h 69 % 0 mm
02:50 -2.2 °C -6.9 °C 1007.7 hPa WSW 14.8 km/h 27.8 km/h 70 % 0 mm
02:55 -2.2 °C -7.2 °C 1007.7 hPa West 13.7 km/h 22.2 km/h 69 % 0 mm
03:00 -2.2 °C -7.2 °C 1007.7 hPa West 12.2 km/h 25.9 km/h 69 % 0 mm
03:05 -2.2 °C -6.9 °C 1007.7 hPa WNW 5.5 km/h 16.7 km/h 70 % 0 mm
03:10 -2.2 °C -6.9 °C 1007.3 hPa NW 6.3 km/h 8 km/h 70 % 0 mm
03:15 -2.3 °C -7 °C 1007.7 hPa WNW 9.3 km/h 17.7 km/h 70 % 0 mm
03:20 -2.3 °C -7 °C 1007.3 hPa West 5.6 km/h 11.1 km/h 70 % 0 mm
03:25 -2.3 °C -7 °C 1007.7 hPa NW 11.7 km/h 22.2 km/h 70 % 0 mm
03:30 -2.3 °C -6.8 °C 1007.7 hPa WNW 5.8 km/h 9.7 km/h 71 % 0 mm
03:35 -2.3 °C -7.1 °C 1007.7 hPa West 10.3 km/h 16.7 km/h 70 % 0 mm
03:41 -2.3 °C -7.1 °C 1007.7 hPa West 7.7 km/h 14.8 km/h 70 % 0 mm
03:46 -2.3 °C -7.1 °C 1007.7 hPa West 6.6 km/h 16.7 km/h 70 % 0 mm
03:51 -2.3 °C -7.1 °C 1007.7 hPa SW 8 km/h 18.5 km/h 70 % 0 mm
03:56 -2.3 °C -7.1 °C 1007.7 hPa WSW 10.8 km/h 16.7 km/h 70 % 0 mm
04:01 -2.3 °C -7.1 °C 1007.7 hPa WNW 7.9 km/h 12.9 km/h 70 % 0 mm
04:06 -2.3 °C -6.9 °C 1008 hPa WNW 5 km/h 9.3 km/h 71 % 0 mm
04:11 -2.4 °C -6.9 °C 1008 hPa WSW 8 km/h 16.7 km/h 71 % 0 mm
04:16 -2.3 °C -6.9 °C 1007.7 hPa West 9.2 km/h 19.3 km/h 71 % 0 mm
04:21 -2.3 °C -6.9 °C 1008 hPa WNW 7.9 km/h 12.9 km/h 71 % 0 mm
04:26 -2.4 °C -6.9 °C 1008 hPa WSW 10.5 km/h 16.7 km/h 71 % 0 mm
04:31 -2.4 °C -6.9 °C 1008 hPa WNW 10.6 km/h 18.5 km/h 71 % 0 mm
04:36 -2.4 °C -6.9 °C 1007.7 hPa WNW 8.5 km/h 13 km/h 71 % 0 mm
04:42 -2.4 °C -6.9 °C 1008 hPa WNW 5.6 km/h 13 km/h 71 % 0 mm
04:47 -2.4 °C -6.9 °C 1008 hPa West 10.9 km/h 14.8 km/h 71 % 0 mm
04:52 -2.4 °C -6.9 °C 1008 hPa WNW 14.3 km/h 24.1 km/h 71 % 0 mm
04:57 -2.4 °C -6.9 °C 1008 hPa West 10.5 km/h 20.4 km/h 71 % 0 mm
05:02 -2.4 °C -6.9 °C 1008 hPa WNW 8.7 km/h 25.9 km/h 71 % 0 mm
05:07 -2.3 °C -7.1 °C 1008 hPa West 13.7 km/h 22.2 km/h 70 % 0 mm
05:12 -2.3 °C -7.1 °C 1008 hPa West 5.6 km/h 16.7 km/h 70 % 0 mm
05:17 -2.3 °C -7.1 °C 1008 hPa West 10.1 km/h 18.5 km/h 70 % 0 mm
05:22 -2.3 °C -7.1 °C 1008.4 hPa WSW 7.9 km/h 31.5 km/h 70 % 0 mm
05:27 -2.3 °C -7.1 °C 1008.4 hPa WSW 6.6 km/h 14.5 km/h 70 % 0 mm
05:32 -2.3 °C -6.9 °C 1008.4 hPa West 11.6 km/h 18.5 km/h 71 % 0 mm
05:37 -2.3 °C -6.9 °C 1008.4 hPa West 9 km/h 18.5 km/h 71 % 0 mm
05:42 -2.3 °C -6.9 °C 1008.4 hPa WNW 8.4 km/h 20.9 km/h 71 % 0 mm
05:47 -2.3 °C -6.9 °C 1008.4 hPa WSW 11.7 km/h 19.3 km/h 71 % 0 mm
05:52 -2.3 °C -6.9 °C 1008.4 hPa West 10.5 km/h 18.5 km/h 71 % 0 mm
05:58 -2.3 °C -6.9 °C 1008.4 hPa West 10 km/h 18.5 km/h 71 % 0 mm
06:03 -2.3 °C -7.1 °C 1008.4 hPa West 5.6 km/h 11.1 km/h 70 % 0 mm
06:08 -2.3 °C -6.9 °C 1008.4 hPa West 11.7 km/h 22.2 km/h 71 % 0 mm
06:13 -2.3 °C -6.9 °C 1008.4 hPa WNW 11.3 km/h 14.8 km/h 71 % 0 mm
06:18 -2.4 °C -6.9 °C 1008.4 hPa West 9.2 km/h 18.5 km/h 71 % 0 mm
06:23 -2.4 °C -6.9 °C 1008.7 hPa SW 14.3 km/h 25.7 km/h 71 % 0 mm
06:28 -2.4 °C -7 °C 1008.4 hPa WSW 15.1 km/h 22.2 km/h 71 % 0 mm
06:33 -2.4 °C -7.1 °C 1008.4 hPa West 10.8 km/h 19.3 km/h 70 % 0 mm
06:38 -2.4 °C -7 °C 1008.4 hPa West 15.1 km/h 27.8 km/h 71 % 0 mm
06:43 -2.4 °C -7 °C 1008.4 hPa West 9.7 km/h 25.7 km/h 71 % 0 mm
06:48 -2.4 °C -7 °C 1008.4 hPa WNW 12.9 km/h 24.1 km/h 71 % 0 mm
06:53 -2.4 °C -6.8 °C 1008.7 hPa West 9.7 km/h 19.3 km/h 72 % 0 mm
06:58 -2.4 °C -7 °C 1008.7 hPa West 9 km/h 22.2 km/h 71 % 0 mm
07:03 -2.4 °C -6.9 °C 1008.7 hPa WSW 10.3 km/h 22.2 km/h 71 % 0 mm
07:08 -2.3 °C -7.1 °C 1008.7 hPa West 12.7 km/h 24.1 km/h 70 % 0 mm
07:13 -2.3 °C -7.1 °C 1008.7 hPa West 10.3 km/h 14.8 km/h 70 % 0 mm
07:18 -2.3 °C -6.8 °C 1008.7 hPa West 7.2 km/h 14.8 km/h 71 % 0 mm
07:24 -2.3 °C -7 °C 1009 hPa NNW 10.5 km/h 20.4 km/h 70 % 0 mm
07:29 -2.2 °C -6.9 °C 1009 hPa West 12.2 km/h 25.9 km/h 70 % 0 mm
07:34 -2.2 °C -6.9 °C 1009 hPa West 8.2 km/h 22.2 km/h 70 % 0 mm
07:39 -2.1 °C -6.8 °C 1009 hPa WNW 10.6 km/h 18.5 km/h 70 % 0 mm
07:44 -2.1 °C -6.8 °C 1009.4 hPa WSW 10.3 km/h 16.7 km/h 70 % 0 mm
07:49 -2.1 °C -6.8 °C 1009.4 hPa West 11.4 km/h 16.1 km/h 70 % 0 mm
07:54 -2 °C -6.7 °C 1009.4 hPa WNW 10.9 km/h 22.5 km/h 70 % 0 mm
07:59 -1.9 °C -6.7 °C 1009.4 hPa West 12.9 km/h 18.5 km/h 70 % 0 mm
08:04 -1.9 °C -6.7 °C 1009.4 hPa NW 11.9 km/h 16.7 km/h 70 % 0 mm
08:09 -1.8 °C -6.6 °C 1009.4 hPa West 7.9 km/h 16.7 km/h 70 % 0 mm
08:14 -1.7 °C -6.7 °C 1009.4 hPa WNW 7.1 km/h 13 km/h 69 % 0 mm
08:19 -1.6 °C -6.6 °C 1009.4 hPa WNW 9.2 km/h 19.3 km/h 69 % 0 mm
08:24 -1.4 °C -6.4 °C 1009.4 hPa WSW 12.1 km/h 16.7 km/h 69 % 0 mm
08:29 -1.3 °C -6.4 °C 1009.4 hPa NW 12.2 km/h 22.2 km/h 68 % 0 mm
08:34 -1.1 °C -6.4 °C 1009.4 hPa WNW 8.4 km/h 14.8 km/h 67 % 0 mm
08:39 -1 °C -6.3 °C 1009.4 hPa WNW 8.4 km/h 20.4 km/h 67 % 0 mm
08:45 -0.9 °C -6.3 °C 1009.7 hPa WNW 13 km/h 20.9 km/h 67 % 0 mm
08:50 -0.8 °C -6.6 °C 1009.7 hPa West 9 km/h 18.5 km/h 65 % 0 mm
08:55 -0.6 °C -6.4 °C 1009.7 hPa West 7.2 km/h 14.8 km/h 65 % 0 mm
09:00 -0.4 °C -6.2 °C 1009.7 hPa West 5.6 km/h 13 km/h 65 % 0 mm
09:05 -0.2 °C -6 °C 1009.7 hPa WSW 6.6 km/h 12.9 km/h 65 % 0 mm
09:10 0.1 °C -5.9 °C 1009.7 hPa NW 10.5 km/h 14.8 km/h 64 % 0 mm
09:15 0.3 °C -5.9 °C 1009.7 hPa NNW 5.5 km/h 18.5 km/h 63 % 0 mm
09:20 0.4 °C -6 °C 1009.7 hPa NW 12.7 km/h 14.8 km/h 62 % 0 mm
09:25 0.5 °C -6.2 °C 1009.7 hPa WNW 9.8 km/h 16.7 km/h 61 % 0 mm
09:40 0.7 °C -5.9 °C 1009.7 hPa NW 7.9 km/h 9.7 km/h 61 % 0 mm
09:45 0.9 °C -5.8 °C 1009.7 hPa NW 7.4 km/h 18.5 km/h 61 % 0 mm
09:50 1 °C -5.9 °C 1009.7 hPa WNW 7.4 km/h 16.7 km/h 60 % 0 mm
09:55 1.1 °C -5.8 °C 1009.7 hPa WNW 4 km/h 7.4 km/h 60 % 0 mm
10:00 1.3 °C -5.8 °C 1009.7 hPa NNW 4.8 km/h 11.1 km/h 59 % 0 mm
10:05 1.4 °C -5.9 °C 1009.7 hPa WNW 7.7 km/h 14.5 km/h 58 % 0 mm
10:10 1.6 °C -5.8 °C 1009.7 hPa WNW 10.9 km/h 17.7 km/h 58 % 0 mm
10:15 1.8 °C -5.4 °C 1009.7 hPa NNW 3.5 km/h 5.6 km/h 59 % 0 mm
10:20 2 °C -5.4 °C 1009.7 hPa WNW 11.6 km/h 24.1 km/h 58 % 0 mm
10:25 2.2 °C -5.5 °C 1009.7 hPa North 9.2 km/h 16.7 km/h 57 % 0 mm
10:31 2.3 °C -5.6 °C 1009.7 hPa North 8.2 km/h 14.5 km/h 56 % 0 mm
10:36 2.3 °C -5.8 °C 1009.7 hPa NW 6.3 km/h 18.5 km/h 55 % 0 mm
10:41 2.4 °C -5.9 °C 1009.7 hPa WNW 10 km/h 18.5 km/h 54 % 0 mm
10:46 2.6 °C -5.8 °C 1009.7 hPa WNW 7.4 km/h 19.3 km/h 54 % 0 mm
10:51 2.7 °C -5.7 °C 1009.4 hPa NW 5.8 km/h 9.7 km/h 54 % 0 mm
10:56 2.9 °C -5.2 °C 1009.4 hPa NW 5.3 km/h 9.7 km/h 55 % 0 mm
11:01 3.2 °C -5.2 °C 1009.4 hPa WNW 2.3 km/h 5.6 km/h 54 % 0 mm
11:06 3.5 °C -5.4 °C 1009.4 hPa NNW 10.5 km/h 14.8 km/h 52 % 0 mm
11:11 3.6 °C -5.9 °C 1009.4 hPa WSW 7.4 km/h 16.7 km/h 50 % 0 mm
11:16 3.5 °C -5.7 °C 1009.4 hPa NW 10.9 km/h 18.5 km/h 51 % 0 mm
11:21 3.4 °C -5.8 °C 1009.4 hPa NNW 6 km/h 13 km/h 51 % 0 mm
11:26 3.6 °C -5.2 °C 1009.4 hPa WNW 7.4 km/h 11.1 km/h 53 % 0 mm
11:31 3.7 °C -5.8 °C 1009.4 hPa NNW 4.7 km/h 9.3 km/h 50 % 0 mm
11:36 3.8 °C -5.7 °C 1009 hPa WNW 4.5 km/h 14.8 km/h 50 % 0 mm
11:41 3.9 °C -5.6 °C 1009 hPa NW 11.7 km/h 14.8 km/h 50 % 0 mm
11:46 3.8 °C -5.4 °C 1009 hPa WSW 9.2 km/h 13 km/h 51 % 0 mm
11:51 3.7 °C -5.8 °C 1009 hPa North 6.8 km/h 16.7 km/h 50 % 0 mm
11:56 3.6 °C -5.3 °C 1009 hPa NW 2.7 km/h 13 km/h 52 % 0 mm
12:01 3.7 °C -5.3 °C 1008.7 hPa WSW 12.2 km/h 22.2 km/h 52 % 0 mm
12:06 3.6 °C -5.7 °C 1008.7 hPa WSW 11.4 km/h 18.5 km/h 51 % 0 mm
12:11 3.5 °C -5.4 °C 1008.7 hPa NW 6 km/h 13 km/h 52 % 0 mm
12:16 3.6 °C -5.4 °C 1008.7 hPa West 9.7 km/h 16.7 km/h 52 % 0 mm
12:21 3.6 °C -5.3 °C 1008.7 hPa WNW 6.4 km/h 13 km/h 52 % 0 mm
12:27 3.7 °C -5.6 °C 1008.7 hPa WSW 7.1 km/h 18.5 km/h 51 % 0 mm
12:32 3.8 °C -5.4 °C 1008.7 hPa West 8 km/h 14.8 km/h 51 % 0 mm
12:42 3.9 °C -5.3 °C 1008.4 hPa WNW 8.5 km/h 18.5 km/h 51 % 0 mm
12:47 3.9 °C -5.6 °C 1008.4 hPa West 6.1 km/h 13 km/h 50 % 0 mm
12:52 4 °C -5.8 °C 1008.4 hPa SW 13 km/h 19.3 km/h 49 % 0 mm
12:57 4 °C -5.8 °C 1008.4 hPa NW 10 km/h 16.7 km/h 49 % 0 mm
13:02 4.1 °C -5.4 °C 1008.4 hPa West 6.6 km/h 9.3 km/h 50 % 0 mm
13:07 4.2 °C -5.6 °C 1008.4 hPa West 10.9 km/h 11.3 km/h 49 % 0 mm
13:12 4.3 °C -5.4 °C 1008 hPa West 9.3 km/h 16.7 km/h 49 % 0 mm
13:17 4.4 °C -5.6 °C 1008 hPa WSW 13.4 km/h 18.5 km/h 48 % 0 mm
13:22 4.5 °C -5.1 °C 1008.4 hPa WSW 6.4 km/h 18.5 km/h 50 % 0 mm
13:27 4.6 °C -5.3 °C 1008 hPa NW 7.2 km/h 18.5 km/h 49 % 0 mm
13:32 4.6 °C -5.3 °C 1008 hPa West 9.5 km/h 18.5 km/h 49 % 0 mm
13:38 4.7 °C -5.4 °C 1008 hPa West 11.7 km/h 18.5 km/h 48 % 0 mm
13:43 4.8 °C -5.6 °C 1008 hPa WNW 9.2 km/h 18.5 km/h 47 % 0 mm
13:48 4.8 °C -5.3 °C 1008 hPa West 4.8 km/h 12.9 km/h 48 % 0 mm
13:53 4.7 °C -5.9 °C 1007.7 hPa West 10 km/h 16.7 km/h 46 % 0 mm
13:58 4.6 °C -5.8 °C 1007.7 hPa WNW 7.6 km/h 18.5 km/h 47 % 0 mm
14:03 4.7 °C -5.4 °C 1007.7 hPa WNW 7.1 km/h 13 km/h 48 % 0 mm
14:08 4.7 °C -5.1 °C 1007.7 hPa WSW 5 km/h 11.1 km/h 49 % 0 mm
14:13 4.8 °C -5.3 °C 1007.7 hPa West 7.9 km/h 11.1 km/h 48 % 0 mm
14:18 4.8 °C -5.6 °C 1007.7 hPa WSW 4 km/h 9.3 km/h 47 % 0 mm
14:23 4.8 °C -5.6 °C 1007.3 hPa SW 6.4 km/h 11.3 km/h 47 % 0 mm
14:28 4.8 °C -5.6 °C 1007.7 hPa WNW 13.4 km/h 16.7 km/h 47 % 0 mm
14:33 4.7 °C -5.7 °C 1007.7 hPa WSW 8.4 km/h 18.5 km/h 47 % 0 mm
14:38 4.6 °C -5.8 °C 1007.7 hPa WSW 12.4 km/h 18.5 km/h 47 % 0 mm
14:43 4.5 °C -5.8 °C 1007.7 hPa West 11.3 km/h 20.9 km/h 47 % 0 mm
14:48 4.4 °C -5.9 °C 1007.7 hPa WSW 13.4 km/h 20.4 km/h 47 % 0 mm
14:53 4.3 °C -6 °C 1007.7 hPa West 8 km/h 20.9 km/h 47 % 0 mm
14:58 4.3 °C -5.5 °C 1007.7 hPa NW 11.3 km/h 20.4 km/h 49 % 0 mm
15:03 4.2 °C -5.9 °C 1007.7 hPa West 8 km/h 20.9 km/h 48 % 0 mm
15:08 4.1 °C -5.7 °C 1007.7 hPa WSW 11.3 km/h 20.9 km/h 49 % 0 mm
15:13 4.1 °C -5.7 °C 1008 hPa West 12.9 km/h 24.1 km/h 49 % 0 mm
15:18 4.1 °C -5.7 °C 1008 hPa WNW 12.9 km/h 25.7 km/h 49 % 0 mm
15:23 4.2 °C -5.6 °C 1008 hPa West 12.6 km/h 22.2 km/h 49 % 0 mm
15:28 4.1 °C -5.7 °C 1008 hPa NW 9.8 km/h 16.7 km/h 49 % 0 mm
15:33 4.1 °C -5.4 °C 1008 hPa WSW 5.3 km/h 11.3 km/h 50 % 0 mm
15:38 4.1 °C -5.4 °C 1007.7 hPa WSW 10.9 km/h 18.5 km/h 50 % 0 mm
15:44 4.1 °C -5.4 °C 1007.7 hPa NW 10 km/h 13 km/h 50 % 0 mm
15:49 4.1 °C -5.7 °C 1007.7 hPa WNW 5.8 km/h 14.8 km/h 49 % 0 mm
15:54 4.1 °C -5.7 °C 1007.7 hPa WNW 8.9 km/h 18.5 km/h 49 % 0 mm
15:59 4.1 °C -5.4 °C 1008 hPa West 5.5 km/h 16.1 km/h 50 % 0 mm
16:04 4.2 °C -5.3 °C 1008 hPa WNW 10.3 km/h 18.5 km/h 50 % 0 mm
16:09 4.2 °C -5.6 °C 1007.7 hPa West 6 km/h 11.3 km/h 49 % 0 mm
16:14 4.2 °C -5.3 °C 1007.7 hPa WSW 6.3 km/h 11.1 km/h 50 % 0 mm
16:19 4.1 °C -5.4 °C 1008 hPa West 5.3 km/h 9.3 km/h 50 % 0 mm
16:24 4.1 °C -5.4 °C 1008 hPa West 8.4 km/h 8.4 km/h 50 % 0 mm
16:29 4.1 °C -5.2 °C 1008 hPa WNW 10.8 km/h 18.5 km/h 51 % 0 mm
16:34 4 °C -5.5 °C 1008 hPa WNW 5.1 km/h 14.8 km/h 50 % 0 mm
16:39 3.9 °C -5.3 °C 1008 hPa West 5.1 km/h 11.1 km/h 51 % 0 mm
16:44 3.9 °C -5.1 °C 1008 hPa West 6.1 km/h 7.4 km/h 52 % 0 mm
16:49 3.8 °C -5.1 °C 1008.4 hPa West 10.8 km/h 16.7 km/h 52 % 0 mm
16:54 3.8 °C -5.2 °C 1008.4 hPa WNW 8.7 km/h 16.7 km/h 52 % 0 mm
17:00 3.7 °C -5.2 °C 1008.4 hPa NW 5.6 km/h 16.7 km/h 52 % 0 mm
17:05 3.7 °C -5.2 °C 1008.4 hPa West 5.6 km/h 14.5 km/h 52 % 0 mm
17:10 3.7 °C -5.3 °C 1008.4 hPa NW 4.5 km/h 7.4 km/h 52 % 0 mm
17:15 3.7 °C -5.3 °C 1008.7 hPa NW 4.5 km/h 11.1 km/h 52 % 0 mm
17:20 3.6 °C -5.1 °C 1008.7 hPa West 8.5 km/h 12.9 km/h 53 % 0 mm
17:25 3.6 °C -5.2 °C 1008.7 hPa West 6.9 km/h 11.1 km/h 53 % 0 mm
17:30 3.5 °C -5.2 °C 1008.7 hPa West 3.1 km/h 5.6 km/h 53 % 0 mm
17:35 3.4 °C -5 °C 1009 hPa WNW 4.5 km/h 13 km/h 54 % 0 mm
17:40 3.4 °C -4.8 °C 1009 hPa WNW 4.7 km/h 9.3 km/h 55 % 0 mm
17:45 3.3 °C -5.1 °C 1009 hPa West 3.2 km/h 11.1 km/h 54 % 0 mm
17:50 3.3 °C -4.8 °C 1009.4 hPa NW 5.6 km/h 11.1 km/h 55 % 0 mm
17:55 3.3 °C -5.2 °C 1009 hPa WNW 4 km/h 14.8 km/h 54 % 0 mm
18:01 3.3 °C -5.2 °C 1009.4 hPa WNW 6.3 km/h 13 km/h 54 % 0 mm
18:06 3.3 °C -4.9 °C 1009.4 hPa WNW 5.5 km/h 7.4 km/h 55 % 0 mm
18:11 3.3 °C -4.9 °C 1009.4 hPa West 4.2 km/h 9.3 km/h 55 % 0 mm
18:16 3.3 °C -4.7 °C 1009.4 hPa WNW 7.2 km/h 7.4 km/h 56 % 0 mm
18:21 3.3 °C -4.7 °C 1009 hPa West 6 km/h 9.7 km/h 56 % 0 mm
18:26 3.3 °C -4.9 °C 1009 hPa West 5.6 km/h 9.3 km/h 55 % 0 mm
18:31 3.3 °C -4.9 °C 1009.4 hPa WNW 5.3 km/h 9.7 km/h 55 % 0 mm
18:36 3.3 °C -4.9 °C 1009.4 hPa West 4.8 km/h 6.4 km/h 55 % 0 mm
18:41 3.3 °C -5.2 °C 1009.7 hPa West 1.6 km/h 5.6 km/h 54 % 0 mm
18:46 3.3 °C -4.9 °C 1009.7 hPa West 5.1 km/h 11.1 km/h 55 % 0 mm
18:51 3.3 °C -4.7 °C 1009.7 hPa West 6.4 km/h 11.1 km/h 56 % 0 mm
18:56 3.3 °C -4.7 °C 1009.7 hPa WNW 2.9 km/h 7.4 km/h 56 % 0 mm
19:01 3.3 °C -4.7 °C 1009.7 hPa WNW 2.9 km/h 7.4 km/h 56 % 0 mm
19:06 3.3 °C -4.7 °C 1009.7 hPa WNW 5.6 km/h 14.8 km/h 56 % 0 mm
19:11 3.3 °C -4.4 °C 1010 hPa West 5 km/h 7.4 km/h 57 % 0 mm
19:16 3.3 °C -4.7 °C 1010 hPa WNW 4.2 km/h 11.1 km/h 56 % 0 mm
19:21 3.3 °C -4.9 °C 1010 hPa WSW 3.7 km/h 7.4 km/h 55 % 0 mm
19:26 3.3 °C -4.9 °C 1010 hPa West 2.7 km/h 5.6 km/h 55 % 0 mm
19:32 3.2 °C -4.9 °C 1010 hPa WNW 2.9 km/h 7.4 km/h 55 % 0 mm
19:37 3.3 °C -4.7 °C 1010 hPa West 0.6 km/h 4.8 km/h 56 % 0 mm
19:42 3.3 °C -4.4 °C 1010 hPa WSW 3.1 km/h 5.6 km/h 57 % 0 mm
19:47 3.2 °C -4.1 °C 1010 hPa West 3.5 km/h 6.4 km/h 59 % 0 mm
19:52 3.2 °C -4.1 °C 1010 hPa West 4.3 km/h 5.6 km/h 59 % 0 mm
19:57 3.2 °C -4.1 °C 1010 hPa West 7.1 km/h 11.1 km/h 59 % 0 mm
20:02 3.1 °C -4.4 °C 1010 hPa WSW 2.6 km/h 5.6 km/h 58 % 0 mm
20:07 3.1 °C -4.4 °C 1010 hPa West 1.9 km/h 5.6 km/h 58 % 0 mm
20:12 3.1 °C -4.4 °C 1010 hPa West 5.3 km/h 7.4 km/h 58 % 0 mm
20:17 3 °C -4.4 °C 1010 hPa WSW 4 km/h 5.6 km/h 58 % 0 mm
20:22 2.9 °C -4.5 °C 1010.4 hPa West 2.7 km/h 5.6 km/h 58 % 0 mm
20:27 2.9 °C -4.3 °C 1010.4 hPa WSW 5.8 km/h 11.1 km/h 59 % 0 mm
20:32 2.9 °C -4.3 °C 1010.4 hPa SW 5.5 km/h 7.4 km/h 59 % 0 mm
20:38 2.9 °C -4.3 °C 1010.4 hPa West 4.2 km/h 11.3 km/h 59 % 0 mm
20:43 2.9 °C -4.6 °C 1010.4 hPa WSW 6.9 km/h 9.3 km/h 58 % 0 mm
20:48 2.9 °C -4.6 °C 1010.4 hPa West 7.1 km/h 13 km/h 58 % 0 mm
20:53 2.9 °C -4.6 °C 1010.4 hPa WSW 1.4 km/h 3.7 km/h 58 % 0 mm
20:58 2.8 °C -4.6 °C 1010.4 hPa SW 3.7 km/h 7.4 km/h 58 % 0 mm
21:03 2.9 °C -4.6 °C 1010.7 hPa WNW 1.8 km/h 3.7 km/h 58 % 0 mm
21:08 2.9 °C -4.6 °C 1010.7 hPa WSW 2.3 km/h 5.6 km/h 58 % 0 mm
21:13 2.8 °C -4.4 °C 1010.7 hPa WSW 2.6 km/h 5.6 km/h 59 % 0 mm
21:18 2.8 °C -4.4 °C 1010.7 hPa WSW 5.3 km/h 8 km/h 59 % 0 mm
21:23 2.8 °C -4.2 °C 1010.7 hPa West 5.1 km/h 5.6 km/h 60 % 0 mm
21:28 2.8 °C -4.4 °C 1010.7 hPa West 4.7 km/h 7.4 km/h 59 % 0 mm
21:33 2.8 °C -4.4 °C 1011.1 hPa WSW 3.9 km/h 7.4 km/h 59 % 0 mm
21:38 2.8 °C -4.2 °C 1011.1 hPa WSW 3.2 km/h 11.3 km/h 60 % 0 mm
21:43 2.8 °C -4 °C 1011.1 hPa WSW 3.2 km/h 11.3 km/h 61 % 0 mm
21:48 2.8 °C -4 °C 1011.1 hPa WSW 4.8 km/h 8 km/h 61 % 0 mm
21:53 2.8 °C -3.8 °C 1011.1 hPa WSW 3.2 km/h 14.5 km/h 62 % 0 mm
21:58 2.7 °C -3.8 °C 1010.7 hPa WSW 5 km/h 8 km/h 62 % 0 mm
22:03 2.7 °C -3.9 °C 1011.1 hPa WSW 4 km/h 9.3 km/h 62 % 0 mm
22:08 2.7 °C -4.1 °C 1011.1 hPa WSW 5.5 km/h 14.8 km/h 61 % 0 mm
22:13 2.6 °C -4.4 °C 1010.7 hPa West 3.7 km/h 5.6 km/h 60 % 0 mm
22:18 2.6 °C -4.4 °C 1011.1 hPa WSW 2.6 km/h 5.6 km/h 60 % 0 mm
22:24 2.6 °C -4.7 °C 1011.1 hPa WNW 2.1 km/h 3.7 km/h 59 % 0 mm
22:29 2.6 °C -4.7 °C 1011.1 hPa WSW 4.8 km/h 9.3 km/h 59 % 0 mm
22:34 2.5 °C -4.7 °C 1011.1 hPa West 2.6 km/h 5.6 km/h 59 % 0 mm
22:39 2.5 °C -4.7 °C 1011.1 hPa West 4 km/h 5.6 km/h 59 % 0 mm
22:44 2.4 °C -4.8 °C 1011.1 hPa SW 4.7 km/h 7.4 km/h 59 % 0 mm
22:49 2.4 °C -4.6 °C 1011.1 hPa WSW 1 km/h 3.7 km/h 60 % 0 mm
22:54 2.3 °C -4.7 °C 1011.1 hPa WSW 1 km/h 8 km/h 60 % 0 mm
22:59 2.3 °C -4.7 °C 1011.1 hPa WSW 2.3 km/h 5.6 km/h 60 % 0 mm
23:04 2.2 °C -5 °C 1011.1 hPa WSW 4 km/h 6.4 km/h 59 % 0 mm
23:09 2.2 °C -5 °C 1011.1 hPa SW 4.7 km/h 9.7 km/h 59 % 0 mm
23:14 2.1 °C -5.1 °C 1011.1 hPa WSW 1.6 km/h 7.4 km/h 59 % 0 mm
23:19 2.1 °C -4.7 °C 1011.1 hPa WSW 0.5 km/h 1.9 km/h 61 % 0 mm
23:24 2 °C -4.7 °C 1011.1 hPa WSW 4.2 km/h 5.6 km/h 61 % 0 mm
23:29 1.9 °C -4.8 °C 1011.1 hPa WSW 0.3 km/h 1.9 km/h 61 % 0 mm
23:34 1.9 °C -4.8 °C 1011.1 hPa WSW 0.3 km/h 1.9 km/h 61 % 0 mm
23:39 1.8 °C -4.9 °C 1011.1 hPa WSW 1.3 km/h 5.6 km/h 61 % 0 mm
23:45 1.7 °C -4.8 °C 1011.1 hPa Calm     62 % 0 mm
23:50 1.6 °C -4.9 °C 1011.7 hPa WSW 0.5 km/h 1.9 km/h 62 % 0 mm
23:55 1.4 °C -4.9 °C 1011.4 hPa Calm     63 % 0 mm
Crab Meadow Weather
Compliments of Weather Underground - 3 mb

Script developed by  Jim McMurry - jmcmurry@mwt.net Adapted for the template by  Wim van der Kuil - Leuven-Template.eu

Snow: Snowflakes generally fall from the sky at speeds between one and five miles per hour.